Location: Unspecified
(0.0000°N, 0.0000°E)
Time: 13:12:48
(UTC+00:00)

N. Korean satellite - Pass Details

Date: 31 May 2019
Orbit: 455 x 510 km, 97.2° (Epoch: 16 June)

Event Time Altitude Azimuth Distance (km) Brightness Sun altitude
Rises 05:20:59 0° 24° (NNE) 2,453 10.9 -8.5°
Reaches altitude 10° 05:23:06 10° 33° (NNE) 1,584 10.1 -8.0°
Maximum altitude 05:26:15 36° 101° (E) 733 8.1 -7.3°
Drops below altitude 10° 05:29:26 10° 169° (S) 1,599 9.1 -6.5°
Sets 05:31:34 0° 178° (S) 2,481 10.0 -6.0°
